Regional Weather Roundup
Issued by NWS

Home | Current Version | Previous Version | Text Only | Print | Product List | Glossary Off
Versions: 1 2 3 4 5 6 7 8 9 10 11 12 13 14 15 16 17 18 19 20 21 22 23 24 25 26 27 28 29 30 31 32 33 34 35 36 37 38 39 40 41 42 43 44 45 46 47 48 49 50

000
ASUS45 KABQ 290210
RWRNM
WEATHER ROUNDUP FOR NEW MEXICO
NATIONAL WEATHER SERVICE ALBUQUERQUE NM
800 PM MDT SAT MAR 28 2015

NOTE: "FAIR" MEANS FEW OR NO CLOUDS BELOW 12,000 FEET AGL WITH NO
       SIGNIFICANT WEATHER OR OBSTRUCTIONS TO VISION.

      THIS PRODUCT IS RELEASED AS TWO VERSIONS.  ONE VERSION NEAR
      THE TOP OF THE HOUR CONTAINING PRELIMINARY DATA FROM ALBUQUERQUE
      AND OTHER STATIONS.  A FINAL VERSION WITH ADDITIONAL DATA IS
      ISSUED ABOUT 10 MINUTES AFTER THE HOUR.

NMZ501-503-504-510>518-290300-
NORTHWEST PLATEAU/NORTHCENTRAL MOUNTAINS

CITY           SKY/WX    TMP DP  RH WIND       PRES   REMARKS
FARMINGTON     CLEAR     64  16  15 NW9       30.10S
LOS ALAMOS     CLEAR     63  11  12 W6        30.22R
SANTA FE       CLEAR     62   7  11 NW10      30.13R
TAOS           CLEAR     57  14  18 W10       30.19R
ANGEL FIRE     FAIR      55  15  20 NW7       30.23R

$$
NMZ402-403-502-505>509-290300-
WESTCENTRAL MOUNTAINS/SOUTHWEST MOUNTAINS

CITY           SKY/WX    TMP DP  RH WIND       PRES   REMARKS
GALLUP         CLEAR     63   9  12 W7        30.20S
GRANTS         CLEAR     58   8  13 W9        30.21R
SILVER CITY    CLEAR     66   3   8 W10       30.20R

$$
NMZ407-409-411-412-290300-
SOUTHERN DESERTS

CITY           SKY/WX    TMP DP  RH WIND       PRES   REMARKS
LORDSBURG      FAIR      68  10  10 W6        30.12S
DEMING         CLEAR     75   3   6 W15       30.10R
LAS CRUCES     CLEAR     74   3   6 W15       30.08S
HOLLOMAN AFB   PTCLDY    73  16  11 SE7       30.03S
ALAMOGORDO     PTCLDY    72  16  12 SE6       30.05S
T OR C         CLEAR     77  11   8 N6        30.06R

$$
NMZ519>523-290300-
CENTRAL VALLEYS/CENTRAL HIGHLANDS

CITY           SKY/WX    TMP DP  RH WIND       PRES   REMARKS
ALBUQUERQUE    CLEAR     73  10   9 W10       30.08S
DOUBLE EAGLE   CLEAR     61   9  12 W10       30.12S
MORIARTY ARPT  FAIR      59  11  15 W8        30.14S
CLINES CORNERS CLEAR     56  15  20 W10       30.17R
BELEN          FAIR      64   4   9 W10       30.10R
SOCORRO        FAIR      74   4   6 NW15      30.08S

$$
NMZ524>526-539-540-290300-
SOUTHCENTRAL MOUNTAINS

CITY           SKY/WX    TMP DP  RH WIND       PRES   REMARKS
RUIDOSO        CLEAR     63  14  15 W6        30.23S

$$
NMZ527>531-290300-
NORTHEAST HIGHLANDS/NORTHEAST PLAINS

CITY           SKY/WX    TMP DP  RH WIND       PRES   REMARKS
LAS VEGAS      CLEAR     58  16  19 W9        30.15R
RATON          CLEAR     60  12  15 W9        30.06R
CLAYTON        CLEAR     62  25  24 S13       30.01R

$$
NMZ532>537-290300-
EASTCENTRAL PLAINS

CITY           SKY/WX    TMP DP  RH WIND       PRES   REMARKS
TUCUMCARI      CLEAR     67  24  19 SE8       29.97S
CANNON AFB     NOT AVBL
CLOVIS AIRPORT CLEAR     66  25  20 SE6       30.02S

$$
NMZ028-029-538-290300-
SOUTHEAST PLAINS

CITY           SKY/WX    TMP DP  RH WIND       PRES   REMARKS
ROSWELL        CLEAR     76  21  12 NW5       30.00R
ARTESIA        CLEAR     73  27  17 SW3       30.01R
CARLSBAD       CLEAR     73  36  25 S7        29.97S
HOBBS          CLEAR     68  25  19 CALM      30.02S


$$


USA.gov is the U.S. government's official web portal to all federal, state and local government web resources and services.